SCP
0 0 0 0 0 0 0 0 0 0 0 0 0 0 -0 0 0 0 0 -0 -0 -0 -0 -0 -0 -0 -0 0 -0 -0 -0 -0 -0 -0 -0 -0 -0 -0 -0 -0 -0 -0 0 0 0 -0 -0 -0 -0
0 0 0 0 0 0 0 0 0 0 0 0 0 0 0 0 0 0 0 -0 -0 -0 -0 -0 -0 -0 -0 -0 -0 -0 -0 -0 -0 -0 -0 -0 -0 -0 -0 -0 -0 -0 0 0 0 0 0 -0 -0
0 0 0 0 0 0 0 0 0 0 0 0 0 0 0 0 0 0 0 0 0 0 0 -0 -0 -0 -0 -0 -0 -0 -0 -0 -0 -0 -0 -0 -0 -0 0 0 0 0 0 0 0 0 0 0 0
0 0 0 0 0 0 0 0 0 0 0 0 0 0 0 0 0 0 0 0 0 0 0 0 -0 -0 -0 -0 -0 -0 -0 -0 -0 -0 -0 -0 0 0 0 0 0 0 0 0 0 0 0 0 0
0 0 0 0 0 0 0 0 0 0 0 0 0 0 0 0 0 0 0 0 0 0 0 0 -0 -0 -0 -0 -0 -0 -0 -0 -0 -0 -0 -0 0 0 0 0 0 0 0 0 0 0 0 0 0
0 0 0 0 0 0 0 0 0 0 0 0 0 0 0 0 0 0 0 0 0 0 0 0 0 -0 -0 -0 -0 -0 -0 -0 -0 -0 -0 -0 -0 -0 0 0 0 0 0 0 0 0 0 0 0
0 0 0 0 0 0 0 0 0 0 0 0 0 0 0 0 0 0 0 0 0 0 0 0 0 0 -0 -0 -0 -0 -0 -0 -0 -0 -0 -0 -0 -0 -0 -0 -0 0 0 0 0 0 0 0 0
0 0 0 0 0 0 0 0 0 0 0 0 0 0 0 0 0 0 0 0 0 0 0 0 0 0 0 0 -0 -0 -0 -0 -0 -0 -0 -0 -0 -0 -0 -0 -0 -0 -0 0 0 0 0 0 0
0 -0 0 0 0 0 0 0 0 0 0 0 0 0 0 0 0 0 0 0 0 0 0 0 0 0 0 0 0 0 0 -0 -0 -0 -0 0 0 0 0 0 -0 -0 -0 0 0 0 0 0 0
0 0 0 0 0 0 0 0 0 0 0 0 0 0 0 0 0 0 0 0 0 0 0 0 0 0 0 0 0 0 0 0 0 0 0 0 0 0 0 0 0 0 0 0 0 0 0 0 0
0 0 0 0 0 0 0 0 0 0 0 0 0 0 0 0 0 0 0 0 0 0 0 0 0 0 0 0 0 0 0 0 0 0 0 0 0 0 0 0 0 0 0 0 0 0 0 0 0
0 0 0 0 0 0 0 0 0 0 0 0 0 0 0 0 0 0 0 0 0 0 0 0 0 0 0 0 0 0 0 0 0 0 0 0 0 0 0 0 0 0 0 0 0 0 0 0 0
-0 0 0 -0 0 0 0 0 0 0 0 0 0 0 0 0 0 0 0 0 0 0 0 0 0 0 0 0 0 0 0 0 0 0 0 0 0 0 0 0 0 0 0 0 0 0 0 0 0
0 0 0 -0 0 0 0 0 0 0 0 0 0 0 0 0 0 0 0 0 0 0 0 0 0 0 0 0 0 0 0 0 0 0 0 0 0 0 0 0 0 0 0 0 0 0 0 0 0
0 0 -0 -0 0 0 -0 0 0 -0 0 0 -0 0 0 0 0 0 -0 -0 0 0 0 0 0 0 0 0 0 0 0 0 0 0 0 0 0 0 0 0 0 0 0 0 0 0 0 0 0
0 0 0 0 0 0 -0 0 -0 -0 -0 -0 -0 -0 -0 -0 -0 -0 -0 -0 -0 -0 0 0 0 0 0 0 0 0 0 0 0 0 0 0 0 0 0 0 0 0 0 0 0 0 0 0 0
-0 -0 0 -0 0 0 0 0 -0 -0 -0 -0 -0 -0 -0 -0 -0 -0 -0 -0 -0 -0 -0 0 0 0 0 0 0 -0 0 0 0 0 0 0 0 0 0 0 0 0 0 0 0 0 0 0 0
-0 -0 -0 -0 -0 -0 -0 0 0 0 -0 -0 -0 -0 -0 -0 -0 -0 -0 -0 -0 -0 -0 -0 0 0 0 0 -0 -0 0 0 0 0 0 0 0 0 0 0 0 0 0 0 0 0 0 -0 0
0 0 -0 -0 -0 -0 -0 -0 0 -0 -0 -0 -0 -0 -0 -0 -0 -0 -0 -0 -0 -0 -0 -0 -0 0 -0 0 -0 -0 -0 -0 -0 -0 -0 -0 -0 0 0 0 0 0 0 0 0 -0 0 0 0
0 0 -0 -0 -0 -0 0 0 0 0 0 -0 -0 -0 -0 -0 -0 -0 -0 -0 -0 -0 -0 -0 -0 -0 -0 -0 -0 -0 -0 -0 -0 -0 -0 -0 -0 -0 -0 -0 -0 -0 -0 -0 -0 -0 -0 -0 -0
0 0 -0 -0 -0 -0 -0 -0 0 -0 -0 -0 -0 -0 -0 -0 -0 -0 -0 -0 -0 -0 -0 -0 -0 -0 -0 -0 -0 -0 -0 -0 -0 -0 -0 -0 -0 -0 -0 -0 -0 -0 -0 -0 -0 -0 -0 -0 -0
0 0 0 0 -0 -0 -0 -0 -0 -0 0 0 -0 0 0 0 0 0 0 0 -0 -0 -0 -0 -0 -0 -0 -0 -0 -0 -0 -0 -0 -0 -0 -0 -0 -0 -0 -0 -0 -0 -0 -0 -0 -0 -0 -0 -0
0 0 0 0 0 -0 0 -0 0 -0 0 0 -0 0 0 0 0 0 0 0 0 0 -0 -0 -0 -0 0 -0 -0 -0 -0 -0 -0 -0 -0 -0 -0 -0 -0 -0 -0 -0 -0 -0 -0 -0 -0 -0 -0
0 0 0 0 0 0 0 0 0 0 0 0 0 0 0 0 0 0 0 0 0 0 0 0 -0 -0 0 0 0 0 0 -0 -0 -0 -0 -0 -0 -0 -0 -0 -0 -0 -0 -0 -0 -0 -0 -0 -0
0 0 0 0 0 0 0 0 0 0 0 0 0 0 0 0 0 0 0 0 0 0 0 0 0 0 0 0 0 0 0 0 0 0 0 0 0 0 -0 -0 -0 -0 -0 -0 -0 -0 -0 -0 -0
0 0 0 0 0 0 0 0 0 0 0 0 0 0 0 0 0 0 0 0 0 0 0 0 0 0 0 0 0 0 0 0 0 0 0 0 0 0 0 0 0 -0 -0 -0 -0 -0 -0 -0 -0
0 0 0 0 0 0 0 0 0 0 0 0 0 0 0 0 0 0 0 0 0 0 0 0 0 0 0 0 0 0 0 0 0 0 0 0 0 0 0 0 0 0 0 0 -0 -0 -0 -0 -0
0 0 0 0 0 0 0 0 0 0 -0 0 0 0 0 0 0 0 0 0 0 0 0 0 0 0 0 0 0 0 0 0 0 0 0 0 0 0 0 0 0 0 0 0 0 0 0 0 0
0 0 0 0 0 0 0 0 0 0 0 0 0 0 0 0 0 0 0 0 0 0 0 0 0 0 0 0 0 0 0 0 0 0 0 0 0 0 0 0 0 0 0 0 0 0 0 0 0
0 0 0 0 0 0 0 0 0 0 0 0 0 0 0 0 0 0 0 0 0 0 0 0 0 0 0 0 0 0 0 0 0 0 0 0 0 0 0 0 0 0 0 0 0 0 0 0 0
Wind_Speed_500mb
6 23 26 8 4 8 9 15 29 26 12 28 42 41 36 39 12 8 30 19 20 16 32 17 25 2 3 5 9 14 15 19 21 23 23 22 19 15 11 9 8 10 11 8 12 16 13 7 6
8 7 17 12 5 14 9 31 31 22 23 20 23 21 41 15 36 19 13 34 23 22 28 26 31 2 6 11 12 15 18 20 20 20 21 22 20 15 10 6 4 6 10 14 15 19 13 8 4
1 17 7 6 9 12 10 25 23 21 38 30 15 36 15 24 35 28 34 28 22 23 26 23 25 9 11 16 20 22 20 20 20 21 22 23 22 20 16 9 2 3 3 6 9 11 17 14 8
10 14 12 3 18 21 13 25 38 23 22 50 23 27 22 35 30 37 28 19 33 26 28 26 27 15 13 13 22 22 20 19 18 20 23 24 23 21 20 17 10 3 9 12 12 12 14 13 10
8 9 9 11 28 20 31 32 46 37 12 42 8 14 17 39 33 27 20 34 39 37 28 31 27 21 17 13 17 13 14 13 13 16 18 22 25 28 27 23 17 10 5 12 17 22 20 11 13
8 7 7 13 13 16 30 51 29 42 36 52 26 21 19 31 48 46 38 46 42 43 39 34 31 23 15 12 10 7 9 9 12 13 15 18 20 25 28 24 23 23 20 16 14 15 15 12 17
9 5 6 15 18 9 11 13 47 37 34 53 23 13 15 43 46 57 57 49 53 51 46 41 36 24 16 9 8 4 5 8 9 10 11 13 14 15 14 13 14 19 21 22 24 24 22 18 17
15 6 8 13 6 11 18 15 50 45 51 15 16 21 14 35 35 47 60 65 64 59 55 54 37 18 13 8 12 4 2 5 9 12 13 11 12 12 15 12 16 15 15 14 21 25 23 23 24
8 9 9 8 9 10 7 8 30 36 55 70 42 47 27 25 42 52 62 63 70 67 66 58 55 50 36 34 14 10 10 6 4 7 9 13 13 11 11 16 16 16 17 16 15 16 25 28 25
20 10 14 17 33 28 45 36 25 24 44 45 50 41 39 39 52 64 68 73 69 67 70 62 59 54 48 48 46 36 35 26 20 13 7 8 10 12 15 22 23 23 19 19 19 18 16 16 21
17 12 19 33 53 49 51 70 21 15 21 33 34 39 39 47 56 62 65 70 66 65 54 62 53 56 53 45 41 42 48 47 39 32 25 19 14 13 13 15 20 29 25 23 23 24 21 20 24
20 34 18 20 25 33 40 39 53 45 20 29 39 45 51 57 62 63 61 64 63 60 62 50 51 49 48 45 42 42 38 41 44 48 39 34 33 32 26 23 23 23 22 25 27 33 33 34 33
41 41 59 70 73 62 70 55 36 41 43 42 48 54 56 58 52 52 52 55 54 55 55 53 49 45 47 49 45 43 42 37 33 34 39 39 36 37 37 35 33 31 32 32 29 31 34 40 43
38 48 35 40 39 36 46 37 13 22 34 41 46 41 43 46 52 49 52 46 52 49 52 48 49 50 43 41 48 51 50 50 46 43 39 35 40 41 38 38 37 36 37 37 37 36 37 38 37
54 32 26 22 22 16 27 29 14 19 24 26 27 36 39 45 45 47 45 45 47 47 49 45 49 49 48 52 50 47 47 48 50 49 46 47 45 44 44 44 45 45 44 42 42 39 40 41 41
15 12 8 12 21 6 15 8 20 12 13 12 18 19 26 25 28 31 36 38 40 45 49 42 46 46 46 48 49 49 48 48 51 52 50 51 50 50 49 50 50 51 51 51 52 54 51 50 50
9 9 16 14 7 5 8 14 14 14 18 18 16 16 18 21 24 28 27 36 40 42 43 46 48 51 46 43 42 44 45 48 51 52 53 54 53 53 55 56 56 57 57 56 57 57 61 63 61
13 10 16 16 18 31 30 26 22 17 19 17 16 15 18 19 19 18 20 29 33 35 40 44 49 49 49 48 47 47 53 52 53 54 56 55 56 56 57 58 60 60 62 63 64 65 63 67 71
27 25 19 13 5 17 19 19 16 20 17 17 14 13 15 17 15 17 21 21 25 30 35 40 45 48 49 50 50 50 51 52 53 55 56 59 60 62 64 64 64 64 65 64 67 70 71 71 75
23 21 11 9 8 12 13 11 11 19 19 16 15 10 7 11 16 19 20 20 20 24 29 35 39 42 45 47 47 47 44 46 46 49 52 55 59 62 65 68 70 70 71 70 70 72 76 72 70
18 13 9 11 12 12 11 10 15 17 15 18 16 14 7 5 10 16 19 20 19 19 24 28 32 35 38 40 41 42 42 42 45 48 49 52 53 56 60 65 68 69 70 71 71 71 71 76 68
9 15 13 9 6 4 2 5 13 17 16 24 26 22 14 7 4 10 13 15 18 17 17 21 25 28 31 35 37 41 43 45 46 47 48 50 50 54 58 63 65 67 69 70 70 68 67 68 71
6 11 9 6 8 2 3 4 2 18 16 19 32 28 25 18 8 6 15 13 13 14 14 16 19 22 25 29 32 35 38 41 44 46 49 50 50 55 59 63 65 67 68 69 70 71 70 66 66
6 6 6 4 5 4 8 4 7 11 15 13 41 38 32 30 17 4 10 11 9 10 11 12 15 18 22 25 29 33 37 41 45 49 53 54 55 58 60 63 66 68 69 70 70 70 69 68 68
7 4 2 6 5 4 7 4 14 14 7 13 41 47 42 33 26 16 11 8 8 10 13 16 17 19 22 25 29 33 37 40 44 47 51 56 58 58 60 63 64 65 66 65 65 68 69 70 72
8 5 7 4 3 5 8 8 8 10 17 8 14 38 37 34 29 27 17 12 13 11 13 15 18 20 22 25 28 32 35 37 41 45 51 56 58 59 63 65 66 66 65 65 66 70 71 72 72
1 2 4 12 5 6 6 10 3 4 6 14 16 20 33 34 32 26 26 21 18 18 18 18 19 20 21 21 25 29 33 36 40 46 50 54 58 61 64 66 69 70 70 70 72 76 77 79 80
3 6 4 4 4 7 6 8 9 13 18 20 28 34 36 36 35 33 33 29 25 22 23 23 24 26 26 27 28 31 35 39 43 48 52 55 59 63 67 68 70 70 69 69 71 74 78 82 84
4 4 3 3 4 7 3 11 9 17 22 22 41 41 40 39 37 35 35 32 31 30 27 27 28 30 35 36 39 41 42 43 46 50 53 56 60 64 68 69 71 71 69 68 70 73 78 82 86
6 5 8 7 8 2 3 13 5 6 13 31 34 37 36 36 34 32 32 35 37 36 31 28 26 29 34 37 42 48 51 51 53 55 57 58 61 65 70 70 72 72 70 70 72 77 82 86 91
Wind_Direction_500mb
314 261 343 351 242 226 96 55 52 31 34 32 49 68 92 58 34 80 331 337 347 37 62 79 43 346 116 96 81 81 74 65 59 53 49 45 44 50 57 60 53 39 41 34 13 347 5 13 48
260 297 307 309 259 219 98 30 49 35 358 313 54 58 40 74 24 333 3 352 11 52 70 89 55 10 110 101 89 78 74 68 61 55 51 49 47 46 52 57 53 48 40 38 41 19 10 349 342
18 44 107 3 18 19 84 25 352 351 18 14 105 54 48 353 349 341 343 358 35 70 89 101 87 132 127 109 102 82 65 59 58 54 47 44 45 44 41 40 56 331 331 22 26 10 354 323 314
115 109 75 149 94 43 45 22 348 346 8 27 83 70 81 10 358 347 355 28 54 67 83 123 103 129 141 113 91 99 93 80 68 63 49 43 46 51 53 51 44 297 290 295 302 314 325 312 302
123 106 81 76 80 90 57 26 30 39 64 24 56 76 69 8 28 32 40 60 61 64 80 105 112 118 139 130 118 109 106 89 72 62 66 63 52 38 31 32 42 54 359 310 307 301 305 326 302
63 71 98 138 118 85 63 34 33 33 42 19 69 85 58 13 45 44 58 66 68 71 74 82 102 109 126 132 115 112 101 88 73 62 57 52 57 54 37 30 31 22 18 15 7 360 1 324 313
81 49 66 115 132 75 38 12 26 30 37 22 51 77 67 29 44 48 64 68 69 73 76 77 89 98 113 136 132 98 29 29 36 40 44 50 46 54 49 42 38 27 15 5 4 355 347 335 323
88 83 76 32 118 71 31 65 51 45 36 45 49 38 32 19 43 53 58 66 74 73 75 72 72 101 94 80 105 121 348 338 333 346 356 14 40 33 30 15 360 349 352 357 354 347 342 338 333
115 64 45 54 58 120 71 97 57 57 59 62 66 64 52 49 50 67 62 65 65 68 66 67 72 69 81 74 81 95 96 72 317 305 307 316 324 323 324 328 327 334 336 337 338 351 347 343 334
47 66 42 63 79 74 62 68 76 54 43 45 39 60 52 54 59 57 56 54 59 59 59 56 62 69 65 66 63 63 53 48 27 5 347 324 321 316 321 322 319 315 316 329 331 322 323 341 336
38 93 115 80 92 88 82 59 59 68 38 29 20 38 55 68 67 64 61 59 59 55 53 55 52 53 60 60 57 56 57 52 50 44 35 29 23 31 332 309 298 305 304 297 292 298 299 297 291
104 66 92 97 95 85 71 82 65 67 79 65 72 60 62 56 61 58 62 62 60 61 57 51 53 55 52 52 50 50 45 42 43 41 36 34 26 24 20 12 9 351 338 317 304 284 281 281 284
70 84 84 89 88 86 89 76 79 58 74 78 70 67 61 58 57 64 60 60 61 59 61 57 58 53 51 54 52 52 49 42 38 33 29 23 28 27 21 17 8 1 356 350 341 310 292 281 280
112 99 99 93 93 96 82 59 65 59 75 70 69 68 61 62 57 61 61 60 58 58 59 55 56 61 60 55 52 50 49 47 43 39 36 28 24 24 20 16 12 4 1 357 351 341 332 326 311
128 111 127 132 136 151 101 51 67 109 89 73 66 56 51 46 40 46 47 50 52 57 63 59 60 59 59 58 59 58 53 48 45 43 40 36 33 30 24 18 15 11 3 356 350 343 336 329 318
180 138 86 75 172 189 176 91 184 148 122 87 68 64 57 58 55 52 50 54 58 56 59 59 60 59 58 57 56 51 50 46 43 40 35 33 31 27 24 22 19 13 6 1 358 354 346 339 330
170 101 112 71 50 106 108 147 140 169 135 113 103 93 76 59 49 47 52 58 60 63 63 58 58 58 57 59 56 52 48 46 41 37 34 30 27 23 20 17 14 10 6 4 0 358 354 347 340
141 97 51 77 70 77 98 125 149 148 129 129 127 106 87 68 57 55 47 52 56 57 58 57 55 55 55 56 56 53 48 46 41 37 34 31 29 25 23 19 14 9 4 1 357 354 354 353 346
81 90 98 80 13 81 109 132 148 153 147 148 132 119 105 88 61 56 54 57 54 53 53 52 52 51 51 51 50 47 43 39 37 33 30 28 25 22 20 17 13 10 7 3 359 353 350 351 349
89 92 87 58 35 94 127 127 145 181 173 167 163 158 121 71 44 42 46 52 52 50 50 47 46 46 46 45 45 44 40 36 33 31 27 26 24 23 20 17 14 10 5 3 359 356 351 350 354
30 42 44 119 115 117 154 167 186 204 194 196 197 199 177 97 50 31 37 40 44 45 41 41 39 37 38 36 37 36 35 31 27 25 23 22 20 19 17 13 9 7 3 1 358 355 352 346 347
78 322 96 143 269 87 27 306 212 187 209 213 209 205 199 194 105 42 37 31 37 38 36 33 31 29 26 25 26 27 24 22 19 16 14 15 14 13 11 9 6 3 0 358 356 354 351 345 341
128 287 21 347 64 339 153 54 84 161 220 215 212 208 204 200 183 27 27 27 29 28 24 15 18 16 14 12 14 16 15 12 9 8 7 6 5 5 3 2 360 358 356 354 351 350 349 346 339
166 216 219 279 134 29 223 125 213 188 214 202 198 201 202 202 210 244 350 8 10 13 12 5 1 360 360 358 357 1 1 2 360 359 359 358 357 357 356 355 353 352 351 349 347 345 343 340 336
253 268 329 351 359 215 66 16 247 179 132 187 179 192 200 203 212 212 261 337 334 343 351 353 352 347 345 347 345 346 349 350 351 350 351 352 350 349 348 347 346 346 345 344 342 341 339 337 333
21 345 141 192 351 287 32 251 248 80 115 175 145 192 196 204 215 225 255 297 328 317 326 339 340 339 335 335 335 332 335 337 339 340 344 345 343 342 343 341 341 341 341 341 340 338 337 335 331
13 346 10 101 42 46 205 244 23 133 219 187 200 192 197 208 221 234 253 275 302 312 309 312 318 321 317 315 318 322 321 323 327 332 334 335 337 337 336 336 337 337 337 336 336 336 335 333 331
20 147 51 347 51 297 283 272 238 214 213 203 206 207 205 212 222 232 246 262 275 293 290 286 291 299 303 304 310 315 318 321 323 324 326 326 331 332 331 332 332 331 330 329 328 327 328 327 327
155 175 52 102 114 184 288 265 218 207 193 194 210 212 211 216 224 236 246 262 273 282 282 284 289 300 305 303 306 309 312 314 316 317 319 320 322 325 326 326 326 326 325 325 323 323 325 324 322
327 297 175 132 246 216 123 271 157 125 168 204 211 213 215 221 230 238 248 252 264 274 277 281 289 304 317 309 304 302 302 305 307 312 315 314 315 320 321 322 322 322 322 320 319 320 321 321 319
Wind_Speed_850mb
6 23 26 8 4 8 9 15 29 26 12 28 42 41 36 39 12 8 30 19 20 16 32 17 25 2 3 5 9 14 15 19 21 23 23 22 19 15 11 9 8 10 11 8 12 16 13 7 6
8 7 17 12 5 14 9 31 31 22 23 20 23 21 41 15 36 19 13 34 23 22 28 26 31 2 6 11 12 15 18 20 20 20 21 22 20 15 10 6 4 6 10 14 15 19 13 8 4
1 17 7 6 9 12 10 25 23 21 38 30 15 36 15 24 35 28 34 28 22 23 26 23 25 9 11 16 20 22 20 20 20 21 22 23 22 20 16 9 2 3 3 6 9 11 17 14 8
10 14 12 3 18 21 13 25 38 23 22 50 23 27 22 35 30 37 28 19 33 26 28 26 27 15 13 13 22 22 20 19 18 20 23 24 23 21 20 17 10 3 9 12 12 12 14 13 10
8 9 9 11 28 20 31 32 46 37 12 42 8 14 17 39 33 27 20 34 39 37 28 31 27 21 17 13 17 13 14 13 13 16 18 22 25 28 27 23 17 10 5 12 17 22 20 11 13
8 7 7 13 13 16 30 51 29 42 36 52 26 21 19 31 48 46 38 46 42 43 39 34 31 23 15 12 10 7 9 9 12 13 15 18 20 25 28 24 23 23 20 16 14 15 15 12 17
9 5 6 15 18 9 11 13 47 37 34 53 23 13 15 43 46 57 57 49 53 51 46 41 36 24 16 9 8 4 5 8 9 10 11 13 14 15 14 13 14 19 21 22 24 24 22 18 17
15 6 8 13 6 11 18 15 50 45 51 15 16 21 14 35 35 47 60 65 64 59 55 54 37 18 13 8 12 4 2 5 9 12 13 11 12 12 15 12 16 15 15 14 21 25 23 23 24
8 9 9 8 9 10 7 8 30 36 55 70 42 47 27 25 42 52 62 63 70 67 66 58 55 50 36 34 14 10 10 6 4 7 9 13 13 11 11 16 16 16 17 16 15 16 25 28 25
20 10 14 17 33 28 45 36 25 24 44 45 50 41 39 39 52 64 68 73 69 67 70 62 59 54 48 48 46 36 35 26 20 13 7 8 10 12 15 22 23 23 19 19 19 18 16 16 21
17 12 19 33 53 49 51 70 21 15 21 33 34 39 39 47 56 62 65 70 66 65 54 62 53 56 53 45 41 42 48 47 39 32 25 19 14 13 13 15 20 29 25 23 23 24 21 20 24
20 34 18 20 25 33 40 39 53 45 20 29 39 45 51 57 62 63 61 64 63 60 62 50 51 49 48 45 42 42 38 41 44 48 39 34 33 32 26 23 23 23 22 25 27 33 33 34 33
41 41 59 70 73 62 70 55 36 41 43 42 48 54 56 58 52 52 52 55 54 55 55 53 49 45 47 49 45 43 42 37 33 34 39 39 36 37 37 35 33 31 32 32 29 31 34 40 43
38 48 35 40 39 36 46 37 13 22 34 41 46 41 43 46 52 49 52 46 52 49 52 48 49 50 43 41 48 51 50 50 46 43 39 35 40 41 38 38 37 36 37 37 37 36 37 38 37
54 32 26 22 22 16 27 29 14 19 24 26 27 36 39 45 45 47 45 45 47 47 49 45 49 49 48 52 50 47 47 48 50 49 46 47 45 44 44 44 45 45 44 42 42 39 40 41 41
15 12 8 12 21 6 15 8 20 12 13 12 18 19 26 25 28 31 36 38 40 45 49 42 46 46 46 48 49 49 48 48 51 52 50 51 50 50 49 50 50 51 51 51 52 54 51 50 50
9 9 16 14 7 5 8 14 14 14 18 18 16 16 18 21 24 28 27 36 40 42 43 46 48 51 46 43 42 44 45 48 51 52 53 54 53 53 55 56 56 57 57 56 57 57 61 63 61
13 10 16 16 18 31 30 26 22 17 19 17 16 15 18 19 19 18 20 29 33 35 40 44 49 49 49 48 47 47 53 52 53 54 56 55 56 56 57 58 60 60 62 63 64 65 63 67 71
27 25 19 13 5 17 19 19 16 20 17 17 14 13 15 17 15 17 21 21 25 30 35 40 45 48 49 50 50 50 51 52 53 55 56 59 60 62 64 64 64 64 65 64 67 70 71 71 75
23 21 11 9 8 12 13 11 11 19 19 16 15 10 7 11 16 19 20 20 20 24 29 35 39 42 45 47 47 47 44 46 46 49 52 55 59 62 65 68 70 70 71 70 70 72 76 72 70
18 13 9 11 12 12 11 10 15 17 15 18 16 14 7 5 10 16 19 20 19 19 24 28 32 35 38 40 41 42 42 42 45 48 49 52 53 56 60 65 68 69 70 71 71 71 71 76 68
9 15 13 9 6 4 2 5 13 17 16 24 26 22 14 7 4 10 13 15 18 17 17 21 25 28 31 35 37 41 43 45 46 47 48 50 50 54 58 63 65 67 69 70 70 68 67 68 71
6 11 9 6 8 2 3 4 2 18 16 19 32 28 25 18 8 6 15 13 13 14 14 16 19 22 25 29 32 35 38 41 44 46 49 50 50 55 59 63 65 67 68 69 70 71 70 66 66
6 6 6 4 5 4 8 4 7 11 15 13 41 38 32 30 17 4 10 11 9 10 11 12 15 18 22 25 29 33 37 41 45 49 53 54 55 58 60 63 66 68 69 70 70 70 69 68 68
7 4 2 6 5 4 7 4 14 14 7 13 41 47 42 33 26 16 11 8 8 10 13 16 17 19 22 25 29 33 37 40 44 47 51 56 58 58 60 63 64 65 66 65 65 68 69 70 72
8 5 7 4 3 5 8 8 8 10 17 8 14 38 37 34 29 27 17 12 13 11 13 15 18 20 22 25 28 32 35 37 41 45 51 56 58 59 63 65 66 66 65 65 66 70 71 72 72
1 2 4 12 5 6 6 10 3 4 6 14 16 20 33 34 32 26 26 21 18 18 18 18 19 20 21 21 25 29 33 36 40 46 50 54 58 61 64 66 69 70 70 70 72 76 77 79 80
3 6 4 4 4 7 6 8 9 13 18 20 28 34 36 36 35 33 33 29 25 22 23 23 24 26 26 27 28 31 35 39 43 48 52 55 59 63 67 68 70 70 69 69 71 74 78 82 84
4 4 3 3 4 7 3 11 9 17 22 22 41 41 40 39 37 35 35 32 31 30 27 27 28 30 35 36 39 41 42 43 46 50 53 56 60 64 68 69 71 71 69 68 70 73 78 82 86
6 5 8 7 8 2 3 13 5 6 13 31 34 37 36 36 34 32 32 35 37 36 31 28 26 29 34 37 42 48 51 51 53 55 57 58 61 65 70 70 72 72 70 70 72 77 82 86 91
Wind_Direction_850mb
314 261 343 351 242 226 96 55 52 31 34 32 49 68 92 58 34 80 331 337 347 37 62 79 43 346 116 96 81 81 74 65 59 53 49 45 44 50 57 60 53 39 41 34 13 347 5 13 48
260 297 307 309 259 219 98 30 49 35 358 313 54 58 40 74 24 333 3 352 11 52 70 89 55 10 110 101 89 78 74 68 61 55 51 49 47 46 52 57 53 48 40 38 41 19 10 349 342
18 44 107 3 18 19 84 25 352 351 18 14 105 54 48 353 349 341 343 358 35 70 89 101 87 132 127 109 102 82 65 59 58 54 47 44 45 44 41 40 56 331 331 22 26 10 354 323 314
115 109 75 149 94 43 45 22 348 346 8 27 83 70 81 10 358 347 355 28 54 67 83 123 103 129 141 113 91 99 93 80 68 63 49 43 46 51 53 51 44 297 290 295 302 314 325 312 302
123 106 81 76 80 90 57 26 30 39 64 24 56 76 69 8 28 32 40 60 61 64 80 105 112 118 139 130 118 109 106 89 72 62 66 63 52 38 31 32 42 54 359 310 307 301 305 326 302
63 71 98 138 118 85 63 34 33 33 42 19 69 85 58 13 45 44 58 66 68 71 74 82 102 109 126 132 115 112 101 88 73 62 57 52 57 54 37 30 31 22 18 15 7 360 1 324 313
81 49 66 115 132 75 38 12 26 30 37 22 51 77 67 29 44 48 64 68 69 73 76 77 89 98 113 136 132 98 29 29 36 40 44 50 46 54 49 42 38 27 15 5 4 355 347 335 323
88 83 76 32 118 71 31 65 51 45 36 45 49 38 32 19 43 53 58 66 74 73 75 72 72 101 94 80 105 121 348 338 333 346 356 14 40 33 30 15 360 349 352 357 354 347 342 338 333
115 64 45 54 58 120 71 97 57 57 59 62 66 64 52 49 50 67 62 65 65 68 66 67 72 69 81 74 81 95 96 72 317 305 307 316 324 323 324 328 327 334 336 337 338 351 347 343 334
47 66 42 63 79 74 62 68 76 54 43 45 39 60 52 54 59 57 56 54 59 59 59 56 62 69 65 66 63 63 53 48 27 5 347 324 321 316 321 322 319 315 316 329 331 322 323 341 336
38 93 115 80 92 88 82 59 59 68 38 29 20 38 55 68 67 64 61 59 59 55 53 55 52 53 60 60 57 56 57 52 50 44 35 29 23 31 332 309 298 305 304 297 292 298 299 297 291
104 66 92 97 95 85 71 82 65 67 79 65 72 60 62 56 61 58 62 62 60 61 57 51 53 55 52 52 50 50 45 42 43 41 36 34 26 24 20 12 9 351 338 317 304 284 281 281 284
70 84 84 89 88 86 89 76 79 58 74 78 70 67 61 58 57 64 60 60 61 59 61 57 58 53 51 54 52 52 49 42 38 33 29 23 28 27 21 17 8 1 356 350 341 310 292 281 280
112 99 99 93 93 96 82 59 65 59 75 70 69 68 61 62 57 61 61 60 58 58 59 55 56 61 60 55 52 50 49 47 43 39 36 28 24 24 20 16 12 4 1 357 351 341 332 326 311
128 111 127 132 136 151 101 51 67 109 89 73 66 56 51 46 40 46 47 50 52 57 63 59 60 59 59 58 59 58 53 48 45 43 40 36 33 30 24 18 15 11 3 356 350 343 336 329 318
180 138 86 75 172 189 176 91 184 148 122 87 68 64 57 58 55 52 50 54 58 56 59 59 60 59 58 57 56 51 50 46 43 40 35 33 31 27 24 22 19 13 6 1 358 354 346 339 330
170 101 112 71 50 106 108 147 140 169 135 113 103 93 76 59 49 47 52 58 60 63 63 58 58 58 57 59 56 52 48 46 41 37 34 30 27 23 20 17 14 10 6 4 0 358 354 347 340
141 97 51 77 70 77 98 125 149 148 129 129 127 106 87 68 57 55 47 52 56 57 58 57 55 55 55 56 56 53 48 46 41 37 34 31 29 25 23 19 14 9 4 1 357 354 354 353 346
81 90 98 80 13 81 109 132 148 153 147 148 132 119 105 88 61 56 54 57 54 53 53 52 52 51 51 51 50 47 43 39 37 33 30 28 25 22 20 17 13 10 7 3 359 353 350 351 349
89 92 87 58 35 94 127 127 145 181 173 167 163 158 121 71 44 42 46 52 52 50 50 47 46 46 46 45 45 44 40 36 33 31 27 26 24 23 20 17 14 10 5 3 359 356 351 350 354
30 42 44 119 115 117 154 167 186 204 194 196 197 199 177 97 50 31 37 40 44 45 41 41 39 37 38 36 37 36 35 31 27 25 23 22 20 19 17 13 9 7 3 1 358 355 352 346 347
78 322 96 143 269 87 27 306 212 187 209 213 209 205 199 194 105 42 37 31 37 38 36 33 31 29 26 25 26 27 24 22 19 16 14 15 14 13 11 9 6 3 0 358 356 354 351 345 341
128 287 21 347 64 339 153 54 84 161 220 215 212 208 204 200 183 27 27 27 29 28 24 15 18 16 14 12 14 16 15 12 9 8 7 6 5 5 3 2 360 358 356 354 351 350 349 346 339
166 216 219 279 134 29 223 125 213 188 214 202 198 201 202 202 210 244 350 8 10 13 12 5 1 360 360 358 357 1 1 2 360 359 359 358 357 357 356 355 353 352 351 349 347 345 343 340 336
253 268 329 351 359 215 66 16 247 179 132 187 179 192 200 203 212 212 261 337 334 343 351 353 352 347 345 347 345 346 349 350 351 350 351 352 350 349 348 347 346 346 345 344 342 341 339 337 333
21 345 141 192 351 287 32 251 248 80 115 175 145 192 196 204 215 225 255 297 328 317 326 339 340 339 335 335 335 332 335 337 339 340 344 345 343 342 343 341 341 341 341 341 340 338 337 335 331
13 346 10 101 42 46 205 244 23 133 219 187 200 192 197 208 221 234 253 275 302 312 309 312 318 321 317 315 318 322 321 323 327 332 334 335 337 337 336 336 337 337 337 336 336 336 335 333 331
20 147 51 347 51 297 283 272 238 214 213 203 206 207 205 212 222 232 246 262 275 293 290 286 291 299 303 304 310 315 318 321 323 324 326 326 331 332 331 332 332 331 330 329 328 327 328 327 327
155 175 52 102 114 184 288 265 218 207 193 194 210 212 211 216 224 236 246 262 273 282 282 284 289 300 305 303 306 309 312 314 316 317 319 320 322 325 326 326 326 326 325 325 323 323 325 324 322
327 297 175 132 246 216 123 271 157 125 168 204 211 213 215 221 230 238 248 252 264 274 277 281 289 304 317 309 304 302 302 305 307 312 315 314 315 320 321 322 322 322 322 320 319 320 321 321 319